Notices

What's New in latest Release from April 7th, 2021:

- Updated Glossary, including Speed of Maximum Gust, and Total Hourly Precipitation

- Updated national and regional climate services offices contacts and prices information

- Addition of station inventory lists for 1981-2010, 1971-2000, and 1961-1990 Normals.

If you haven't already, please take our survey and provide feedback about our website: https://eccc.sondage-survey.ca/f/LanguageSelection.aspx?s=442ca660-fcf1-47c0-95a9-59707d6fd709

Hourly Data Report for September 21, 2019

TORONTO CITY
ONTARIO
Current Station Operator: ECCC - MSC

43°40'00.000" N
79°24'00.000" W
112.50 m
6158355
71508
XTO

Download Data

Hourly Data (September 2019)
Hourly Data Report for September 21, 2019
TIME
LST
Temp Definition
°C
Dew Point Definition
°C
Rel Hum Definition
%
Precip. Amount Definition
mm

Wind Dir Definition
10's deg

Wind Spd Definition
km/h
Visibility Definition
km
Stn Press Definition
kPa
Hmdx Definition


Wind Chill Definition


Weather Definition


00:00 19.7 15.3 76 0.0       100.81     LegendNANA
01:00 19.0 14.8 77 0.0       100.82     LegendNANA
02:00 18.6 15.0 79 0.0       100.82     LegendNANA
03:00 17.8 14.8 82 0.0       100.80     LegendNANA
04:00 17.4 14.6 84 0.0       100.81     LegendNANA
05:00 17.8 14.7 82 0.0       100.82     LegendNANA
06:00 18.0 15.4 84 0.0       100.87     LegendNANA
07:00 18.5 15.3 82 0.0       100.91     LegendNANA
08:00 19.6 16.3 81 0.0       100.91     LegendNANA
09:00 21.8 15.7 68 0.0       100.89 26   LegendNANA
10:00 22.9 15.2 62 0.0       100.87 27   LegendNANA
11:00 23.5 15.7 62 0.0       100.87 28   LegendNANA
12:00 23.3 15.3 61 0.0       100.83 27   LegendNANA
13:00 25.9 14.8 51 0.0       100.74 30   LegendNANA
14:00 26.0 13.8 47 0.0       100.70 29   LegendNANA
15:00 25.6 14.2 50 0.0       100.65 29   LegendNANA
16:00 24.3 15.1 57 0.0       100.62 28   LegendNANA
17:00 22.5 14.8 62 0.0       100.61 26   LegendNANA
18:00 22.2 14.5 62 0.0       100.56 26   LegendNANA
19:00 21.9 15.1 65 0.0       100.57 26   LegendNANA
20:00 21.6 15.9 70 0.0       100.58 26   LegendNANA
21:00 20.4 16.2 77 0.0       100.57 25   LegendNANA
22:00 20.5 16.3 77 0.0       100.55 25   LegendNANA
23:00 20.6 17.5 82 0.0       100.54 26   LegendNANA

Notes on Data Quality.

Legend

  • E = Estimated
  • M = Missing
  • NA = Not Available*
  • [empty] = Indicates an unobserved value
Date modified: